BAW82 EGLL-DGAA

Flight info

Callsign BAW82
Flight time N/A
Altitude 38000
Route MODMI M185 MID L151 SITET UN859 SOPIL DCT BALAN DCT EVPOK DCT NARAK DCT GAI DCT LOMRA DCT ROCAN DCT PUMAL DCT XEPLA DCT BCN DCT GARBI DCT LARPA DCT TOLSO DCT LISAS DCT MJV N859 MOGIL UB31 ZEM/N0490F360 UZ333 KAHIL UB726 GHA/N0487F370 UA615 TMS UA604 EREBO/N0493F380 DCT MIGNI DCT ABALA DCT IPUTA DCT TATAT DCT KILMO DCT LITEX LITEX1B
Aircraft A35K/H-SDE2E3GHIJ3J4J5LM1ORWXY/LB1D1

Departure

Time N/A
Airport London Heathrow Airport (EGLL)

Arrival

Time 2026-05-06 21:44
Airport Kotoka International Airport (DGAA)
Time Latitude Longitude Altitude Speed Heading
2026-05-06 18:26 27.63029 4.62493 37782 ft 445 kts 187°
2026-05-06 18:26 27.59968 4.63033 37781 ft 445 kts 187°
2026-05-06 18:26 27.53838 4.64115 37783 ft 445 kts 187°
2026-05-06 18:27 27.47744 4.65190 37785 ft 445 kts 187°
2026-05-06 18:27 27.41619 4.66269 37785 ft 445 kts 187°
2026-05-06 18:28 27.35492 4.67347 37781 ft 444 kts 187°
2026-05-06 18:28 27.29394 4.68421 37782 ft 443 kts 187°
2026-05-06 18:29 27.23297 4.69489 37785 ft 443 kts 187°
2026-05-06 18:29 27.17245 4.70549 37785 ft 443 kts 187°
2026-05-06 18:30 27.11152 4.71616 37785 ft 443 kts 187°
2026-05-06 18:30 27.05057 4.72682 37785 ft 442 kts 188°
2026-05-06 18:31 26.98974 4.73747 37788 ft 441 kts 188°
2026-05-06 18:31 26.92904 4.74806 37784 ft 441 kts 188°
2026-05-06 18:32 26.86875 4.75856 37786 ft 441 kts 188°
2026-05-06 18:32 26.80800 4.76913 37792 ft 441 kts 188°
2026-05-06 18:33 26.74728 4.77970 37791 ft 441 kts 188°
2026-05-06 18:33 26.68651 4.79026 37788 ft 441 kts 188°
2026-05-06 18:34 26.62582 4.80078 37788 ft 441 kts 188°
2026-05-06 18:34 26.56520 4.81128 37795 ft 441 kts 188°
2026-05-06 18:35 26.50499 4.82170 37792 ft 441 kts 188°
2026-05-06 18:35 26.44428 4.83222 37791 ft 441 kts 188°
2026-05-06 18:36 26.38357 4.84272 37806 ft 441 kts 188°
2026-05-06 18:36 26.32287 4.85321 37799 ft 441 kts 189°
2026-05-06 18:37 26.26210 4.86369 37809 ft 441 kts 188°
2026-05-06 18:37 26.20141 4.87415 37808 ft 441 kts 188°
2026-05-06 18:38 26.14066 4.88460 37814 ft 443 kts 188°
2026-05-06 18:38 26.07957 4.89512 37809 ft 443 kts 188°
2026-05-06 18:39 26.01867 4.90562 37820 ft 443 kts 188°
2026-05-06 18:40 25.92767 4.92120 37823 ft 443 kts 188°
2026-05-06 18:40 25.86677 4.93162 37790 ft 443 kts 188°
2026-05-06 18:41 25.80568 4.94206 37831 ft 444 kts 188°
2026-05-06 18:41 25.74450 4.95251 37827 ft 444 kts 188°
2026-05-06 18:42 25.68366 4.96289 37826 ft 446 kts 188°
2026-05-06 18:42 25.62231 4.97336 37825 ft 446 kts 188°
2026-05-06 18:43 25.56090 4.98385 37818 ft 446 kts 188°
2026-05-06 18:43 25.49950 4.99430 37814 ft 446 kts 188°
2026-05-06 18:44 25.43809 5.00475 37815 ft 446 kts 188°
2026-05-06 18:44 25.37666 5.01519 37821 ft 446 kts 188°
2026-05-06 18:45 25.31525 5.02561 37827 ft 446 kts 188°
2026-05-06 18:45 25.25388 5.03602 37806 ft 446 kts 188°
2026-05-06 18:46 25.19247 5.04642 37811 ft 446 kts 187°
2026-05-06 18:46 25.13105 5.05681 37812 ft 446 kts 187°
2026-05-06 18:47 25.06998 5.06714 37814 ft 446 kts 187°
2026-05-06 18:47 25.00861 5.07751 37822 ft 446 kts 187°
2026-05-06 18:48 24.94703 5.08790 37819 ft 446 kts 187°
2026-05-06 18:48 24.88569 5.09823 37825 ft 446 kts 187°
2026-05-06 18:49 24.82464 5.10852 37824 ft 446 kts 187°
2026-05-06 18:49 24.76320 5.11886 37823 ft 446 kts 187°
2026-05-06 18:50 24.70180 5.12918 37823 ft 446 kts 187°
2026-05-06 18:50 24.64035 5.13950 37826 ft 446 kts 187°
2026-05-06 18:51 24.57889 5.14981 37829 ft 446 kts 187°
2026-05-06 18:51 24.51743 5.16010 37834 ft 446 kts 187°
2026-05-06 18:52 24.45635 5.17032 37832 ft 446 kts 187°
2026-05-06 18:52 24.39502 5.18059 37832 ft 446 kts 187°
2026-05-06 18:53 24.33367 5.19083 37847 ft 446 kts 187°
2026-05-06 18:53 24.27219 5.20107 37848 ft 447 kts 187°
2026-05-06 18:54 24.21063 5.21130 37844 ft 448 kts 187°
2026-05-06 18:54 24.14899 5.22157 37839 ft 448 kts 187°
2026-05-06 18:55 24.08738 5.23182 37843 ft 448 kts 187°
2026-05-06 18:55 24.02576 5.24207 37833 ft 448 kts 187°
2026-05-06 18:56 23.96449 5.25224 37819 ft 448 kts 186°
2026-05-06 18:56 23.90296 5.26246 37832 ft 447 kts 186°
2026-05-06 18:57 23.84152 5.27264 37831 ft 447 kts 186°
2026-05-06 18:57 23.78002 5.28283 37832 ft 446 kts 186°
2026-05-06 18:58 23.71842 5.29302 37831 ft 446 kts 187°
2026-05-06 18:58 23.65740 5.30310 37803 ft 446 kts 187°
2026-05-06 18:59 23.59582 5.31323 37836 ft 449 kts 186°
2026-05-06 18:59 23.53391 5.32344 37836 ft 450 kts 186°
2026-05-06 19:00 23.47207 5.33364 37868 ft 449 kts 186°
2026-05-06 19:00 23.41012 5.34385 37867 ft 450 kts 186°
2026-05-06 19:01 23.34822 5.35404 37873 ft 450 kts 186°
2026-05-06 19:01 23.28617 5.36425 37874 ft 452 kts 185°
2026-05-06 19:02 23.22433 5.37441 37877 ft 452 kts 185°
2026-05-06 19:02 23.16206 5.38461 37882 ft 452 kts 185°
2026-05-06 19:03 23.09967 5.39483 37920 ft 453 kts 185°
2026-05-06 19:03 23.03741 5.40501 37968 ft 452 kts 186°
2026-05-06 19:04 22.97511 5.41517 38009 ft 453 kts 185°
2026-05-06 19:04 22.91267 5.42539 38062 ft 453 kts 185°
2026-05-06 19:05 22.85029 5.43558 38076 ft 453 kts 185°
2026-05-06 19:05 22.78784 5.45165 38100 ft 473 kts 173°
2026-05-06 19:06 22.72660 5.47692 38075 ft 474 kts 171°
2026-05-06 19:06 22.66545 5.50390 38022 ft 475 kts 170°
2026-05-06 19:07 22.60413 5.53101 37956 ft 475 kts 170°
2026-05-06 19:07 22.54282 5.55787 37893 ft 475 kts 171°
2026-05-06 19:08 22.48145 5.58461 37815 ft 475 kts 171°
2026-05-06 19:08 22.42010 5.61128 37810 ft 475 kts 171°
2026-05-06 19:09 22.35874 5.63795 37788 ft 475 kts 171°
2026-05-06 19:09 22.30779 5.66007 37800 ft 475 kts 170°
2026-05-06 19:10 22.24638 5.68671 37805 ft 475 kts 170°
2026-05-06 19:10 22.18502 5.71331 37787 ft 476 kts 170°
2026-05-06 19:11 22.12343 5.73997 37788 ft 478 kts 170°
2026-05-06 19:11 22.06163 5.76670 37784 ft 478 kts 170°
2026-05-06 19:12 21.99984 5.79341 37788 ft 478 kts 169°
2026-05-06 19:12 21.93803 5.82010 37782 ft 478 kts 169°
2026-05-06 19:13 21.87626 5.84676 37780 ft 478 kts 169°
2026-05-06 19:13 21.81484 5.87324 37776 ft 478 kts 169°
2026-05-06 19:14 21.75301 5.89986 37782 ft 478 kts 169°
2026-05-06 19:14 21.69119 5.92646 37766 ft 478 kts 169°
2026-05-06 19:15 21.62926 5.95307 37772 ft 479 kts 169°
2026-05-06 19:15 21.56729 5.97968 37773 ft 479 kts 169°
2026-05-06 19:16 21.50574 6.00609 37773 ft 479 kts 169°
2026-05-06 19:16 21.44373 6.03267 37770 ft 479 kts 169°
2026-05-06 19:17 21.38178 6.05920 37769 ft 479 kts 169°
2026-05-06 19:17 21.31980 6.08572 37767 ft 479 kts 169°
2026-05-06 19:18 21.25765 6.11228 37765 ft 481 kts 169°
2026-05-06 19:18 21.19534 6.13888 37765 ft 482 kts 169°
2026-05-06 19:19 21.13298 6.16550 37764 ft 482 kts 169°
2026-05-06 19:19 21.07111 6.19187 37759 ft 482 kts 169°
2026-05-06 19:20 21.00884 6.21840 37744 ft 482 kts 169°
2026-05-06 19:20 20.94642 6.24495 37750 ft 482 kts 169°
2026-05-06 19:21 20.88411 6.27144 37754 ft 482 kts 169°
2026-05-06 19:21 20.82166 6.29798 37752 ft 482 kts 169°
2026-05-06 19:22 20.75938 6.32441 37757 ft 482 kts 169°
2026-05-06 19:22 20.69698 6.35087 37754 ft 482 kts 169°
2026-05-06 19:23 20.63493 6.37714 37749 ft 483 kts 169°
2026-05-06 19:23 20.57245 6.40358 37748 ft 483 kts 169°
2026-05-06 19:24 20.50985 6.43006 37750 ft 483 kts 169°
2026-05-06 19:24 20.44725 6.45651 37744 ft 483 kts 169°
2026-05-06 19:25 20.38463 6.48295 37743 ft 485 kts 169°
2026-05-06 19:25 20.32217 6.50928 37740 ft 486 kts 169°
2026-05-06 19:26 20.25916 6.53583 37747 ft 486 kts 169°
2026-05-06 19:26 20.19625 6.56230 37743 ft 486 kts 169°
2026-05-06 19:26 20.16443 6.57317 37744 ft 475 kts 178°
2026-05-06 19:27 20.13234 6.57917 37739 ft 461 kts 187°
2026-05-06 19:27 20.10069 6.57989 37743 ft 449 kts 197°
2026-05-06 19:27 20.07019 6.57546 37738 ft 437 kts 206°
2026-05-06 19:28 20.01327 6.55582 37720 ft 430 kts 213°
2026-05-06 19:28 19.95729 6.53270 37739 ft 433 kts 214°
2026-05-06 19:29 19.90144 6.50958 37737 ft 434 kts 213°
2026-05-06 19:29 19.84480 6.48664 37738 ft 435 kts 213°
2026-05-06 19:30 19.78817 6.46395 37745 ft 435 kts 213°
2026-05-06 19:30 19.73206 6.44153 37737 ft 433 kts 213°
2026-05-06 19:31 19.67569 6.41898 37718 ft 432 kts 213°
2026-05-06 19:31 19.59099 6.38510 37732 ft 433 kts 213°
2026-05-06 19:32 19.53456 6.36256 37733 ft 433 kts 213°
2026-05-06 19:32 19.47839 6.34015 37732 ft 433 kts 213°
2026-05-06 19:33 19.42185 6.31760 37733 ft 434 kts 213°
2026-05-06 19:33 19.36536 6.29508 37732 ft 433 kts 213°
2026-05-06 19:34 19.30883 6.27256 37733 ft 434 kts 212°
2026-05-06 19:34 19.25223 6.25003 37730 ft 435 kts 212°
2026-05-06 19:35 19.19598 6.22767 37730 ft 435 kts 212°
2026-05-06 19:35 19.13932 6.20516 37730 ft 435 kts 212°
2026-05-06 19:36 19.08262 6.18265 37733 ft 435 kts 212°
2026-05-06 19:36 19.02600 6.16018 37733 ft 435 kts 212°
2026-05-06 19:37 18.96930 6.13769 37733 ft 435 kts 212°
2026-05-06 19:37 18.92214 6.11900 37729 ft 436 kts 212°
2026-05-06 19:38 18.85575 6.09272 37732 ft 436 kts 212°
2026-05-06 19:38 18.79900 6.07028 37733 ft 434 kts 212°
2026-05-06 19:39 18.74281 6.04807 37732 ft 434 kts 212°
2026-05-06 19:39 18.68625 6.02572 37732 ft 433 kts 212°
2026-05-06 19:40 18.62965 6.00335 37730 ft 435 kts 211°
2026-05-06 19:40 18.57291 5.98097 37730 ft 435 kts 211°
2026-05-06 19:41 18.51619 5.95862 37730 ft 435 kts 211°
2026-05-06 19:41 18.45949 5.93629 37730 ft 435 kts 211°
2026-05-06 19:42 18.40276 5.91396 37730 ft 435 kts 211°
2026-05-06 19:42 18.34637 5.89177 37730 ft 435 kts 211°
2026-05-06 19:43 18.28947 5.86940 37731 ft 436 kts 210°
2026-05-06 19:43 18.23245 5.84700 37730 ft 437 kts 210°
2026-05-06 19:44 18.17548 5.82463 37733 ft 437 kts 210°
2026-05-06 19:44 18.11856 5.80231 37732 ft 437 kts 210°
2026-05-06 19:45 18.06161 5.77998 37733 ft 437 kts 210°
2026-05-06 19:45 18.00462 5.75766 37733 ft 437 kts 210°
2026-05-06 19:46 17.94796 5.73548 37733 ft 437 kts 210°
2026-05-06 19:46 17.89096 5.71318 37736 ft 437 kts 210°
2026-05-06 19:47 17.83437 5.69044 37743 ft 431 kts 214°
2026-05-06 19:47 17.78231 5.66095 37736 ft 424 kts 220°
2026-05-06 19:48 17.73160 5.62911 37738 ft 424 kts 221°
2026-05-06 19:48 17.68115 5.59697 37738 ft 425 kts 221°
2026-05-06 19:49 17.63052 5.56488 37741 ft 426 kts 220°
2026-05-06 19:49 17.57966 5.53280 37742 ft 427 kts 220°
2026-05-06 19:50 17.52870 5.50074 37744 ft 427 kts 220°
2026-05-06 19:50 17.47810 5.46893 37740 ft 427 kts 220°
2026-05-06 19:51 17.42718 5.43693 37742 ft 427 kts 220°
2026-05-06 19:51 17.37615 5.40488 37747 ft 427 kts 220°
2026-05-06 19:52 17.32517 5.37287 37722 ft 427 kts 220°
2026-05-06 19:52 17.27410 5.34081 37750 ft 429 kts 220°
2026-05-06 19:53 17.22291 5.30872 37744 ft 429 kts 220°
2026-05-06 19:53 17.17173 5.27666 37745 ft 428 kts 220°
2026-05-06 19:54 17.12088 5.24483 37750 ft 428 kts 220°
2026-05-06 19:54 17.06972 5.21282 37747 ft 428 kts 220°
2026-05-06 19:55 17.01857 5.18084 37754 ft 428 kts 220°
2026-05-06 19:55 16.96739 5.14885 37745 ft 428 kts 219°
2026-05-06 19:56 16.91618 5.11686 37747 ft 430 kts 219°
2026-05-06 19:56 16.87349 5.09022 37750 ft 430 kts 219°
2026-05-06 19:57 16.82206 5.05815 37749 ft 430 kts 219°
2026-05-06 19:57 16.77066 5.02610 37744 ft 430 kts 219°
2026-05-06 19:58 16.71951 4.99424 37748 ft 430 kts 219°
2026-05-06 19:58 16.66813 4.96226 37745 ft 430 kts 219°
2026-05-06 19:59 16.61676 4.93029 37741 ft 430 kts 219°
2026-05-06 19:59 16.56536 4.89833 37754 ft 430 kts 219°
2026-05-06 20:00 16.51387 4.86632 37748 ft 431 kts 219°
2026-05-06 20:00 16.46240 4.83436 37751 ft 431 kts 219°
2026-05-06 20:01 16.41125 4.80262 37752 ft 430 kts 219°
2026-05-06 20:01 16.35978 4.77070 37749 ft 430 kts 219°
2026-05-06 20:02 16.30831 4.73880 37756 ft 430 kts 219°
2026-05-06 20:02 16.25675 4.70685 37751 ft 431 kts 219°
2026-05-06 20:03 16.20510 4.67487 37748 ft 432 kts 219°
2026-05-06 20:03 16.15366 4.64305 37752 ft 432 kts 219°
2026-05-06 20:04 16.10199 4.61111 37754 ft 432 kts 219°
2026-05-06 20:04 16.04974 4.58002 37748 ft 437 kts 213°
2026-05-06 20:05 15.99457 4.55349 37752 ft 436 kts 212°
2026-05-06 20:05 15.93917 4.52799 37737 ft 435 kts 211°
2026-05-06 20:06 15.88376 4.50267 37751 ft 435 kts 211°
2026-05-06 20:06 15.82834 4.47729 37755 ft 435 kts 211°
2026-05-06 20:07 15.77334 4.45205 37754 ft 435 kts 212°
2026-05-06 20:07 15.71793 4.42662 37755 ft 435 kts 212°
2026-05-06 20:08 15.66259 4.40123 37753 ft 435 kts 212°
2026-05-06 20:08 15.60717 4.37583 37752 ft 435 kts 212°
2026-05-06 20:09 15.55216 4.35062 37755 ft 436 kts 211°
2026-05-06 20:09 15.49663 4.32520 37756 ft 436 kts 211°
2026-05-06 20:10 15.44105 4.29977 37757 ft 436 kts 211°
2026-05-06 20:10 15.38548 4.27437 37756 ft 436 kts 211°
2026-05-06 20:11 15.32992 4.24897 37751 ft 436 kts 211°
2026-05-06 20:11 15.27435 4.22359 37752 ft 436 kts 211°
2026-05-06 20:12 15.21870 4.19819 37750 ft 437 kts 211°
2026-05-06 20:12 15.16326 4.17289 37751 ft 438 kts 211°
2026-05-06 20:13 15.10746 4.14745 37751 ft 438 kts 211°
2026-05-06 20:13 15.05170 4.12204 37751 ft 438 kts 211°
2026-05-06 20:14 14.99593 4.09664 37748 ft 438 kts 211°
2026-05-06 20:14 14.94016 4.07126 37748 ft 438 kts 211°
2026-05-06 20:15 14.88445 4.04592 37747 ft 438 kts 211°
2026-05-06 20:15 14.82852 4.02048 37745 ft 440 kts 211°
2026-05-06 20:16 14.77243 3.99500 37768 ft 440 kts 211°
2026-05-06 20:16 14.71638 3.96954 37748 ft 440 kts 211°
2026-05-06 20:17 14.66032 3.94410 37747 ft 440 kts 211°
2026-05-06 20:17 14.60456 3.91881 37748 ft 440 kts 211°
2026-05-06 20:18 14.54850 3.89339 37752 ft 440 kts 210°
2026-05-06 20:18 14.49243 3.86799 37764 ft 440 kts 210°
2026-05-06 20:19 14.43637 3.84260 37754 ft 440 kts 210°
2026-05-06 20:19 14.38019 3.81717 37772 ft 440 kts 210°
2026-05-06 20:20 14.32414 3.79181 37768 ft 439 kts 210°
2026-05-06 20:20 14.26814 3.76649 37749 ft 439 kts 210°
2026-05-06 20:21 14.21215 3.74120 37752 ft 439 kts 210°
2026-05-06 20:21 14.15664 3.71612 37764 ft 439 kts 210°
2026-05-06 20:22 14.10060 3.69083 37757 ft 439 kts 210°
2026-05-06 20:22 14.04460 3.66556 37760 ft 439 kts 210°
2026-05-06 20:23 13.98855 3.64029 37770 ft 439 kts 210°
2026-05-06 20:23 13.93298 3.61525 37770 ft 439 kts 210°
2026-05-06 20:24 13.87695 3.59001 37770 ft 439 kts 210°
2026-05-06 20:24 13.82089 3.56477 37767 ft 439 kts 209°
2026-05-06 20:25 13.76498 3.53960 37776 ft 438 kts 209°
2026-05-06 20:25 13.70934 3.51459 37774 ft 438 kts 209°
2026-05-06 20:26 13.65343 3.48946 37781 ft 438 kts 209°
2026-05-06 20:26 13.59757 3.46436 37778 ft 438 kts 209°
2026-05-06 20:27 13.54158 3.43922 37784 ft 438 kts 209°
2026-05-06 20:27 13.48595 3.41356 37783 ft 438 kts 210°
2026-05-06 20:28 13.43084 3.38772 37783 ft 438 kts 210°
2026-05-06 20:28 13.37534 3.36178 37783 ft 438 kts 210°
2026-05-06 20:29 13.31976 3.33593 37789 ft 438 kts 210°
2026-05-06 20:29 13.26407 3.31008 37790 ft 438 kts 210°
2026-05-06 20:30 13.18067 3.27139 37794 ft 438 kts 210°
2026-05-06 20:31 13.12507 3.24561 37792 ft 438 kts 210°
2026-05-06 20:31 13.06948 3.21984 37791 ft 439 kts 210°
2026-05-06 20:32 13.01380 3.19405 37797 ft 439 kts 210°
2026-05-06 20:32 12.95840 3.16841 37796 ft 439 kts 210°
2026-05-06 20:33 12.90269 3.14262 37796 ft 439 kts 210°
2026-05-06 20:33 12.84696 3.11685 37796 ft 439 kts 210°
2026-05-06 20:34 12.79118 3.09106 37796 ft 439 kts 210°
2026-05-06 20:34 12.73583 3.06548 37794 ft 440 kts 210°
2026-05-06 20:35 12.67996 3.03966 37797 ft 441 kts 209°
2026-05-06 20:35 12.62402 3.01384 37797 ft 441 kts 209°
2026-05-06 20:36 12.56813 2.98805 37803 ft 441 kts 209°
2026-05-06 20:36 12.51211 2.96221 37804 ft 441 kts 209°
2026-05-06 20:37 12.45609 2.93639 37803 ft 441 kts 209°
2026-05-06 20:37 12.40017 2.91063 37804 ft 441 kts 209°
2026-05-06 20:38 12.34420 2.88484 37807 ft 441 kts 209°
2026-05-06 20:38 12.28820 2.85906 37810 ft 442 kts 209°
2026-05-06 20:39 12.23249 2.83343 37813 ft 442 kts 209°
2026-05-06 20:39 12.17646 2.80767 37812 ft 442 kts 209°
2026-05-06 20:40 12.12039 2.78189 37813 ft 442 kts 209°
2026-05-06 20:40 12.06428 2.75611 37812 ft 442 kts 209°
2026-05-06 20:41 12.00823 2.73037 37822 ft 442 kts 209°
2026-05-06 20:41 11.95235 2.70472 37824 ft 444 kts 208°
2026-05-06 20:42 11.89598 2.67885 37824 ft 444 kts 208°
2026-05-06 20:42 11.83952 2.65295 37823 ft 444 kts 208°
2026-05-06 20:43 11.78304 2.62706 37827 ft 444 kts 208°
2026-05-06 20:43 11.72664 2.60122 37831 ft 444 kts 208°
2026-05-06 20:44 11.67027 2.57540 37833 ft 444 kts 208°
2026-05-06 20:44 11.61413 2.54970 37835 ft 444 kts 208°
2026-05-06 20:45 11.55773 2.52388 37840 ft 444 kts 208°
2026-05-06 20:45 11.50133 2.49809 37840 ft 444 kts 208°
2026-05-06 20:46 11.44493 2.47230 37842 ft 444 kts 208°
2026-05-06 20:46 11.39809 2.45089 37843 ft 444 kts 208°
2026-05-06 20:47 11.33252 2.42094 37846 ft 444 kts 208°
2026-05-06 20:47 11.27617 2.39521 37846 ft 444 kts 208°
2026-05-06 20:48 11.22922 2.37378 37850 ft 443 kts 208°
2026-05-06 20:48 11.17291 2.34809 37848 ft 443 kts 208°
2026-05-06 20:49 11.11654 2.32238 37848 ft 443 kts 208°
2026-05-06 20:49 11.06018 2.29669 37848 ft 443 kts 208°
2026-05-06 20:50 11.00494 2.26913 37866 ft 440 kts 216°
2026-05-06 20:50 10.95614 2.23240 37860 ft 439 kts 223°
2026-05-06 20:51 10.90872 2.19276 37859 ft 440 kts 224°
2026-05-06 20:51 10.86163 2.15283 37862 ft 441 kts 224°
2026-05-06 20:52 10.81466 2.11325 37873 ft 441 kts 224°
2026-05-06 20:52 10.76728 2.07354 37873 ft 441 kts 224°
2026-05-06 20:53 10.71993 2.03394 37876 ft 441 kts 224°
2026-05-06 20:53 10.67250 1.99427 37879 ft 441 kts 224°
2026-05-06 20:54 10.62503 1.95459 37881 ft 441 kts 224°
2026-05-06 20:54 10.57794 1.91524 37884 ft 441 kts 224°
2026-05-06 20:55 10.53057 1.87565 37886 ft 440 kts 223°
2026-05-06 20:55 10.48323 1.83613 37889 ft 440 kts 223°
2026-05-06 20:56 10.43582 1.79657 37894 ft 440 kts 223°
2026-05-06 20:56 10.38844 1.75704 37898 ft 440 kts 223°
2026-05-06 20:57 10.34140 1.71781 37903 ft 440 kts 223°
2026-05-06 20:57 10.29401 1.67830 37897 ft 440 kts 223°
2026-05-06 20:58 10.24665 1.63884 37899 ft 440 kts 223°
2026-05-06 20:58 10.19936 1.59945 37893 ft 440 kts 223°
2026-05-06 20:59 10.15196 1.55997 37897 ft 442 kts 222°
2026-05-06 20:59 10.10441 1.52041 37896 ft 442 kts 223°
2026-05-06 21:00 10.05691 1.48088 37895 ft 440 kts 223°
2026-05-06 21:00 10.00951 1.44143 37899 ft 440 kts 223°
2026-05-06 21:01 9.96212 1.40204 37898 ft 441 kts 223°
2026-05-06 21:01 9.91497 1.36287 37886 ft 440 kts 223°
2026-05-06 21:02 9.86753 1.32346 37884 ft 440 kts 223°
2026-05-06 21:02 9.82014 1.28411 37940 ft 441 kts 223°
2026-05-06 21:03 9.77275 1.24477 37950 ft 439 kts 223°
2026-05-06 21:03 9.72548 1.20555 37956 ft 439 kts 223°
2026-05-06 21:04 9.67817 1.16631 37956 ft 439 kts 223°
2026-05-06 21:04 9.63115 1.12733 37951 ft 441 kts 223°
2026-05-06 21:05 9.58349 1.08784 37934 ft 444 kts 223°
2026-05-06 21:05 9.53562 1.04817 37917 ft 444 kts 223°
2026-05-06 21:06 9.48771 1.00850 37909 ft 444 kts 223°
2026-05-06 21:06 9.46207 0.99079 37896 ft 448 kts 212°
2026-05-06 21:06 9.43389 0.97728 37901 ft 447 kts 206°
2026-05-06 21:07 9.37666 0.95369 37897 ft 442 kts 204°
2026-05-06 21:07 9.31931 0.93156 37901 ft 441 kts 204°
2026-05-06 21:08 9.26198 0.90947 37893 ft 440 kts 204°
2026-05-06 21:08 9.20479 0.88722 37897 ft 440 kts 204°
2026-05-06 21:09 9.14794 0.86500 37900 ft 440 kts 204°
2026-05-06 21:09 9.09072 0.84262 37897 ft 440 kts 204°
2026-05-06 21:10 9.03334 0.82019 37900 ft 440 kts 204°
2026-05-06 21:10 8.97625 0.79790 37899 ft 440 kts 204°
2026-05-06 21:11 8.91949 0.77574 37902 ft 440 kts 204°
2026-05-06 21:11 8.86227 0.75341 37895 ft 441 kts 204°
2026-05-06 21:12 8.80489 0.73103 37894 ft 443 kts 204°
2026-05-06 21:12 8.74933 0.70936 37895 ft 443 kts 204°
2026-05-06 21:13 8.69280 0.68729 37900 ft 450 kts 204°
2026-05-06 21:13 8.63405 0.66426 37903 ft 461 kts 204°
2026-05-06 21:14 8.57307 0.64030 37901 ft 473 kts 204°
2026-05-06 21:14 8.51135 0.61606 37903 ft 484 kts 204°
2026-05-06 21:15 8.44788 0.59117 37893 ft 493 kts 204°
2026-05-06 21:15 8.38387 0.56613 37892 ft 493 kts 204°
2026-05-06 21:16 8.31983 0.54119 37894 ft 494 kts 204°
2026-05-06 21:16 8.25565 0.51624 37895 ft 495 kts 204°
2026-05-06 21:17 8.19136 0.49125 37898 ft 495 kts 204°
2026-05-06 21:17 8.12741 0.46639 37897 ft 495 kts 204°
2026-05-06 21:18 8.06315 0.44142 37881 ft 495 kts 204°
2026-05-06 21:18 7.99883 0.41645 37884 ft 495 kts 204°
2026-05-06 21:19 7.93453 0.39150 37884 ft 495 kts 204°
2026-05-06 21:19 7.87013 0.36652 37884 ft 498 kts 203°
2026-05-06 21:20 7.80518 0.34131 37885 ft 500 kts 204°
2026-05-06 21:20 7.74065 0.31625 37773 ft 500 kts 204°
2026-05-06 21:20 7.70853 0.30382 37718 ft 487 kts 203°
2026-05-06 21:21 7.67712 0.29172 37600 ft 481 kts 204°
2026-05-06 21:21 7.64597 0.27968 36940 ft 479 kts 203°
2026-05-06 21:21 7.61482 0.26764 36297 ft 478 kts 203°
2026-05-06 21:21 7.58386 0.25564 35690 ft 476 kts 203°
2026-05-06 21:22 7.55298 0.24365 35044 ft 475 kts 203°
2026-05-06 21:22 7.52214 0.23164 34373 ft 476 kts 202°
2026-05-06 21:22 7.49121 0.21958 33619 ft 477 kts 203°
2026-05-06 21:22 7.46019 0.20748 32843 ft 478 kts 202°
2026-05-06 21:23 7.42902 0.19533 32094 ft 482 kts 202°
2026-05-06 21:23 7.39712 0.18355 31774 ft 495 kts 201°
2026-05-06 21:23 7.36470 0.17164 31661 ft 509 kts 201°
2026-05-06 21:23 7.33122 0.15911 31449 ft 516 kts 201°
2026-05-06 21:24 7.29750 0.14632 31205 ft 517 kts 201°
2026-05-06 21:24 7.26389 0.13346 30741 ft 514 kts 201°
2026-05-06 21:24 7.23046 0.12061 29923 ft 514 kts 201°
2026-05-06 21:24 7.19703 0.10778 28970 ft 514 kts 201°
2026-05-06 21:25 7.16367 0.09501 28266 ft 509 kts 201°
2026-05-06 21:25 7.13069 0.08232 27657 ft 503 kts 201°
2026-05-06 21:25 7.09825 0.06981 27044 ft 497 kts 201°
2026-05-06 21:25 7.06612 0.05741 26425 ft 491 kts 201°
2026-05-06 21:26 7.03477 0.04531 25830 ft 486 kts 201°
2026-05-06 21:26 7.00332 0.03317 25225 ft 481 kts 201°
2026-05-06 21:26 6.97226 0.02118 24643 ft 477 kts 201°
2026-05-06 21:26 6.94141 0.00928 24046 ft 472 kts 201°
2026-05-06 21:27 6.91090 -0.00249 23451 ft 468 kts 201°
2026-05-06 21:27 6.88053 -0.01422 22788 ft 463 kts 201°
2026-05-06 21:27 6.85062 -0.02575 22187 ft 458 kts 201°
2026-05-06 21:27 6.82105 -0.03716 21635 ft 452 kts 201°
2026-05-06 21:28 6.79184 -0.04844 21058 ft 446 kts 201°
2026-05-06 21:28 6.76303 -0.05956 20479 ft 441 kts 201°
2026-05-06 21:28 6.73450 -0.07058 19921 ft 437 kts 201°
2026-05-06 21:28 6.70619 -0.08150 19350 ft 433 kts 201°
2026-05-06 21:29 6.67814 -0.09233 18772 ft 430 kts 201°
2026-05-06 21:29 6.64997 -0.10195 18163 ft 426 kts 195°
2026-05-06 21:29 6.62075 -0.10574 17331 ft 423 kts 179°
2026-05-06 21:29 6.59195 -0.10394 16724 ft 418 kts 174°
2026-05-06 21:30 6.56312 -0.10104 16143 ft 413 kts 174°
2026-05-06 21:30 6.53735 -0.09838 15630 ft 409 kts 174°
2026-05-06 21:30 6.50906 -0.09550 15098 ft 408 kts 173°
2026-05-06 21:30 6.48086 -0.09266 14472 ft 405 kts 173°
2026-05-06 21:31 6.45291 -0.08985 13886 ft 402 kts 173°
2026-05-06 21:31 6.42521 -0.08708 13246 ft 399 kts 173°
2026-05-06 21:31 6.39775 -0.08435 12678 ft 394 kts 173°
2026-05-06 21:31 6.37062 -0.08166 12103 ft 389 kts 173°
2026-05-06 21:32 6.34377 -0.07901 11527 ft 385 kts 173°
2026-05-06 21:32 6.29129 -0.07385 10717 ft 366 kts 173°
2026-05-06 21:32 6.26650 -0.07150 10593 ft 348 kts 173°
2026-05-06 21:33 6.24292 -0.06932 10464 ft 332 kts 173°
2026-05-06 21:33 6.22050 -0.06722 10339 ft 316 kts 173°
2026-05-06 21:33 6.19940 -0.06514 10211 ft 302 kts 173°
2026-05-06 21:33 6.17893 -0.06307 10078 ft 290 kts 172°
2026-05-06 21:34 6.15922 -0.06104 9945 ft 279 kts 172°
2026-05-06 21:34 6.13991 -0.05900 9744 ft 286 kts 172°
2026-05-06 21:34 6.11968 -0.05692 9704 ft 293 kts 173°
2026-05-06 21:34 6.09943 -0.05497 9242 ft 292 kts 173°
2026-05-06 21:35 6.08603 -0.05364 9002 ft 293 kts 173°
2026-05-06 21:35 6.06568 -0.05165 8502 ft 294 kts 174°
2026-05-06 21:35 6.04536 -0.04966 8072 ft 292 kts 174°
2026-05-06 21:35 6.01878 -0.04704 7593 ft 287 kts 174°
2026-05-06 21:36 5.99895 -0.04509 7244 ft 286 kts 175°
2026-05-06 21:36 5.97925 -0.04315 6894 ft 284 kts 175°
2026-05-06 21:36 5.96600 -0.04183 6671 ft 283 kts 175°
2026-05-06 21:36 5.94649 -0.03991 6317 ft 281 kts 175°
2026-05-06 21:37 5.92705 -0.03931 5964 ft 278 kts 187°
2026-05-06 21:37 5.90938 -0.04357 5668 ft 276 kts 198°
2026-05-06 21:37 5.89122 -0.04985 5347 ft 276 kts 202°
2026-05-06 21:37 5.87347 -0.05697 5036 ft 274 kts 204°
2026-05-06 21:38 5.85610 -0.06458 4718 ft 271 kts 207°
2026-05-06 21:38 5.83903 -0.07246 4408 ft 269 kts 207°
2026-05-06 21:38 5.82221 -0.08008 4083 ft 262 kts 207°
2026-05-06 21:38 5.80582 -0.08706 3894 ft 249 kts 205°
2026-05-06 21:39 5.78984 -0.09280 3678 ft 239 kts 200°
2026-05-06 21:39 5.77416 -0.09763 3398 ft 233 kts 201°
2026-05-06 21:39 5.75920 -0.10345 3114 ft 227 kts 208°
2026-05-06 21:39 5.74502 -0.10980 2821 ft 215 kts 207°
2026-05-06 21:40 5.73172 -0.11515 2537 ft 197 kts 206°
2026-05-06 21:40 5.71973 -0.12003 2296 ft 179 kts 208°
2026-05-06 21:40 5.70878 -0.12458 2061 ft 161 kts 207°
2026-05-06 21:40 5.69887 -0.12863 1868 ft 147 kts 207°
2026-05-06 21:41 5.68974 -0.13240 1692 ft 137 kts 207°
2026-05-06 21:41 5.68095 -0.13604 1534 ft 138 kts 208°
2026-05-06 21:41 5.67203 -0.13973 1351 ft 138 kts 207°
2026-05-06 21:41 5.66321 -0.14335 1164 ft 137 kts 207°
2026-05-06 21:42 5.65437 -0.14699 1002 ft 138 kts 208°
2026-05-06 21:42 5.64544 -0.15068 821 ft 139 kts 206°
2026-05-06 21:42 5.63655 -0.15440 648 ft 137 kts 206°
2026-05-06 21:42 5.62763 -0.15797 459 ft 137 kts 204°
2026-05-06 21:43 5.61885 -0.16159 306 ft 138 kts 206°
2026-05-06 21:43 5.60995 -0.16529 237 ft 132 kts 201°
2026-05-06 21:43 5.60209 -0.16852 220 ft 107 kts 202°
2026-05-06 21:43 5.59652 -0.17082 220 ft 66 kts 202°
2026-05-06 21:44 5.59347 -0.17208 211 ft 37 kts 202°
2026-05-06 21:44 5.59193 -0.17322 206 ft 27 kts 257°
2026-05-06 21:44 5.59252 -0.17431 213 ft 16 kts 348°
2026-05-06 21:44 5.59359 -0.17410 214 ft 16 kts 21°
2026-05-06 21:45 5.59465 -0.17368 215 ft 16 kts 21°
2026-05-06 21:45 5.59572 -0.17324 217 ft 17 kts 22°
2026-05-06 21:45 5.59691 -0.17275 220 ft 20 kts 22°
2026-05-06 21:45 5.59830 -0.17216 223 ft 23 kts 22°
2026-05-06 21:46 5.59966 -0.17160 219 ft 9 kts 16°
2026-05-06 21:46 5.60018 -0.17183 223 ft 8 kts 307°
2026-05-06 21:46 5.60035 -0.17224 226 ft 5 kts 292°
2026-05-06 21:46 5.60040 -0.17235 225 ft 0 kts 292°